Date,TemperatureHighF,TemperatureAvgF,TemperatureLowF,DewpointHighF,DewpointAvgF,DewpointLowF,HumidityHigh,HumidityAvg,HumidityLow,PressureMaxIn,PressureMinIn,WindSpeedMaxMPH,WindSpeedAvgMPH,GustSpeedMaxMPH,PrecipitationSumIn
2013-5-1,53,37,31,42,35,30,97,92,52,0.00,40.00,13,8,24,1.10
2013-5-2,47,39,33,34,26,23,96,62,41,0.00,40.00,21,11,30,0.00
2013-5-3,42,36,31,34,27,24,92,72,53,0.00,40.00,14,8,26,0.00
2013-5-4,41,37,33,40,36,31,95,94,91,0.00,40.00,11,7,22,0.44
2013-5-5,52,46,40,46,43,38,95,89,80,0.00,40.00,9,6,13,0.00
2013-5-6,68,55,45,49,46,43,92,73,46,0.00,40.00,9,4,12,0.00
2013-5-7,77,61,42,57,45,40,93,61,29,0.00,40.00,14,4,19,0.00
2013-5-8,73,60,55,58,52,44,93,76,41,0.00,40.00,12,4,19,0.01
2013-5-9,62,57,48,58,53,44,93,86,68,0.00,40.00,11,5,22,0.00
2013-5-10,67,53,39,44,34,-100,87,54,27,0.00,40.00,12,6,20,0.00
2013-5-11,56,48,41,43,24,-100,65,41,25,0.00,40.00,21,13,34,0.00
2013-5-12,62,48,30,25,21,18,66,38,22,0.00,40.00,12,6,17,0.00
2013-5-13,83,63,39,48,38,23,61,40,28,0.00,40.00,27,13,37,0.00
2013-5-14,103,80,56,56,48,31,80,38,18,0.00,40.00,31,13,38,0.00
2013-5-15,83,69,55,47,43,31,61,40,24,0.00,40.00,13,5,22,0.00
2013-5-16,86,63,49,62,31,-100,91,56,22,0.00,40.00,23,6,35,0.96
2013-5-17,82,69,61,65,56,-100,93,75,49,0.00,40.00,17,10,25,0.04
2013-5-18,85,73,61,62,59,56,91,64,38,0.00,40.00,18,11,27,0.00
2013-5-19,71,67,62,65,62,58,91,85,70,0.00,40.00,21,9,30,0.21
2013-5-20,71,62,56,61,57,53,92,82,53,0.00,40.00,23,12,34,0.00
2013-5-21,60,57,53,56,52,49,92,82,69,0.00,40.00,16,9,23,0.00
2013-5-22,55,51,48,53,49,46,93,91,87,0.00,40.00,11,6,18,0.22
2013-5-23,66,56,46,48,40,31,92,58,27,0.00,40.00,12,6,19,0.00
2013-5-24,67,52,44,41,39,37,81,63,38,0.00,40.00,20,9,28,0.00
2013-5-28,74,68,61,63,60,57,91,75,56,0.00,40.00,6,4,9,0.00
2013-5-29,74,67,59,67,62,57,92,85,70,0.00,40.00,24,12,30,0.11
2013-5-30,72,66,62,63,61,52,91,82,67,0.00,40.00,25,15,37,0.40
2013-5-31,75,65,56,54,50,47,80,61,39,0.00,40.00,27,16,35,0.00